[[{"header":{"parameterUnit":"m.s-1","parameterCategory":1,"la1":30.2991,"la2":30.254,"lo1":-89.0895,"lo2":-89.0444,"dy":0.0017,"dx":0.0017,"nx":28,"ny":28,"refTime":"2023-11-07T09:00:00:Z","depth":0,"parameterNumber":2,"parameterNumberName":"U-component_of_WINDS"},"data":[0,0,0,0,0,0,0,0,0,0,0,0,0,0,0,0,0,0,0,0,0,0,0,0,0,0,0,0,0,0,0,0,0,0,0,0,0,0,0,0,0,0,0,0,0,0,0,0,0,0,0,0,0,0,0,0,0,0,0.1305,0.1306,0,0.1379,0.138,0.1381,0.1343,0.1342,0.134,0.1338,0.1417,0.1421,0.1425,0,0,0,0,0,0,0,0,0,0,0,0,0,0.1137,0.114,0.1305,0.1306,0.1307,0.1379,0.138,0.1381,0.1344,0.1341,0.1339,0.1337,0.1416,0.1421,0.1425,0,0,0,0,0,0,0,0,0,0,0,0,0,0.121,0.1141,0.1305,0.1297,0.1297,0.1379,0.138,0.1381,0.1344,0.1341,0.1338,0.1336,0.1415,0.142,0.1426,0.1521,0,0,0.1444,0.1447,0,0,0,0,0,0,0,0,0.1206,0.1217,0.1297,0.1298,0.1298,0.1349,0.135,0.1429,0.1345,0.1327,0.1338,0.1334,0.1397,0.1404,0.1425,0.1525,0.1529,0.1445,0.1448,0.1451,0.1453,0,0,0,0,0,0,0,0.1201,0.1213,0.1335,0.1299,0.1299,0.1291,0.1299,0.1365,0.1378,0.1328,0.1325,0.1334,0.1397,0.1419,0.1426,0.153,0.1445,0.145,0.1453,0.1456,0.1717,0.172,0,0,0,0,0,0,0.1196,0.1209,0.1332,0.1337,0.1244,0.1297,0.1305,0.1336,0.1377,0.138,0.1337,0.1332,0.1411,0.142,0.1429,0.1547,0.1451,0.1456,0.146,0.1713,0.1717,0.1721,0,0,0,0,0,0,0.1192,0.1207,0.1329,0.1272,0.1287,0.1303,0.1338,0.1339,0.1361,0.1383,0.1386,0.1357,0.1409,0.1421,0.15,0.1549,0.1459,0.1464,0.1709,0.1715,0.1719,0.1782,0,0,0,0,0,0,0.1188,0.1206,0.1241,0.1273,0.129,0.1397,0.1341,0.1342,0.1371,0.1366,0.1403,0.1407,0.1407,0.1491,0.1505,0.1556,0.1469,0.1705,0.1712,0.1718,0.1775,0.1788,0.1799,0,0,0,0,0,0.1182,0.1256,0.1243,0.1258,0.1334,0.14,0.141,0.1408,0.1375,0.1412,0.1427,0.1405,0.1541,0.1499,0.1515,0.1568,0.1702,0.171,0.1717,0.177,0.1786,0.1799,0,0,0,0,0,0,0.1229,0.126,0.1246,0.1332,0.1364,0.1393,0.1439,0.1424,0.1467,0.146,0.1457,0.1466,0.1549,0.1566,0.1519,0.1665,0.1617,0.1628,0.1651,0.1666,0.1678,0.1674,0.1474,0,0,0,0,0,0.1249,0.1299,0.1323,0.1397,0.1413,0.1424,0.1452,0.1448,0.1481,0.1495,0.1515,0.1549,0.16,0.1633,0.1681,0.1776,0.1787,0.1821,0.1833,0.1843,0.1854,0.191,0.1927,0.1746,0.1746,0.1746,0,0,0.1292,0.1315,0.1346,0.1407,0.1431,0.1485,0.1435,0.1493,0.1533,0.1504,0.158,0.1597,0.1635,0.1724,0.1764,0.174,0.1905,0.1852,0.186,0.1866,0.1919,0.1937,0.1952,0.1751,0.175,0.1749,0,0,0.1399,0.1419,0.1485,0.151,0.1547,0.1554,0.157,0.1602,0.1612,0.1688,0.1668,0.1717,0.1803,0.1832,0.1859,0.1978,0.1962,0.1994,0.2058,0.2113,0.2127,0.214,0.2187,0.2203,0.2004,0.2004,0.2004,0,0.1448,0.1526,0.1521,0.1581,0.161,0.1585,0.1653,0.1678,0.1729,0.1751,0.1723,0.1833,0.1857,0.1954,0.1984,0.2004,0.2025,0.1991,0.2125,0.2138,0.215,0.2195,0.2212,0.2008,0.2007,0.2007,0.2007,0,0.1587,0.1642,0.1691,0.1741,0.1775,0.1839,0.1845,0.1881,0.1874,0.1885,0.1965,0.1992,0.2047,0.2069,0.2062,0.2167,0.2152,0.2124,0.2077,0.2171,0.2213,0.223,0.2013,0.2012,0.2011,0.201,0,0,0.1726,0.1773,0.1792,0.1816,0.1856,0.1899,0.1963,0.2016,0.2048,0.2084,0.2141,0.2215,0.2191,0.2221,0.2218,0.2266,0.2364,0.2233,0.2234,0.226,0.2486,0.2509,0.2528,0.2352,0.2355,0.2358,0.2484,0,0.1838,0.195,0.1948,0.2052,0.2105,0.2083,0.2139,0.2171,0.2183,0.2231,0.2244,0.2299,0.2261,0.228,0.2325,0.2343,0.241,0.2333,0.2408,0.2411,0.2403,0.255,0.2573,0.2691,0.25,0.2503,0.2505,0,0.1984,0.2026,0.2136,0.2171,0.2193,0.2244,0.2294,0.2339,0.2376,0.2381,0.2416,0.2406,0.2474,0.2422,0.2518,0.2466,0.2496,0.251,0.2514,0.2524,0.2466,0.2568,0.2728,0.2747,0.253,0.2528,0.2526,0,0.208,0.2163,0.2241,0.2261,0.2303,0.234,0.236,0.2393,0.2426,0.247,0.2492,0.2544,0.2573,0.2614,0.262,0.258,0.2718,0.2665,0.2728,0.2728,0.276,0.2759,0.2932,0.2773,0.2773,0.2773,0.2772,0,0.2207,0.2277,0.2285,0.2333,0.2411,0.2409,0.2487,0.2503,0.2534,0.2587,0.2569,0.262,0.2622,0.2675,0.2679,0.2761,0.2773,0.2782,0.2783,0.2786,0.2785,0.2808,0.2802,0.2778,0.2776,0.2776,0.2775,0,0.2329,0.2336,0.242,0.2453,0.2464,0.252,0.2549,0.2597,0.2607,0.2675,0.269,0.2707,0.2768,0.2777,0.2848,0.2852,0.2951,0.2941,0.2939,0.2939,0.3003,0.2998,0.32,0.3228,0.3047,0.3049,0.305,0,0.2411,0.2464,0.2504,0.2538,0.2559,0.2614,0.2648,0.2648,0.2684,0.2732,0.2775,0.2834,0.2881,0.298,0.3001,0.3056,0.3051,0.3117,0.3059,0.3061,0.3057,0.3055,0.3063,0.313,0.3132,0.3133,0.3135,0,0.2559,0.2561,0.2609,0.2661,0.2702,0.2743,0.2781,0.281,0.2816,0.2858,0.292,0.2957,0.3031,0.3091,0.3147,0.3169,0.3155,0.3152,0.3171,0.3176,0.3174,0.318,0.2974,0.3149,0.3147,0.3146,0.3145,0.3145,0.2666,0.2714,0.275,0.2806,0.2835,0.2872,0.2919,0.2936,0.2987,0.3047,0.3044,0.3114,0.3152,0.3225,0.3251,0.3308,0.3286,0.3311,0.3318,0.3326,0.3334,0.3162,0.3317,0.3317,0.3316,0.3316,0.3316,0,0.2817,0.2839,0.289,0.2945,0.299,0.2971,0.3013,0.3053,0.3114,0.315,0.3198,0.3272,0.3331,0.3356,0.3415,0.3455,0.3451,0.3471,0.347,0.3477,0.3348,0.3328,0.3474,0.3474,0.3474,0.3474,0.3474,0.3474,0.29,0.2981,0.2988,0.3084,0.3106,0.3174,0.32,0.3235,0.3265,0.3348,0.3397,0.3412,0.3446,0.3507,0.3562,0.3568,0.3592,0.3617,0.3621,0.3501,0.3485,0.347,0.3451,0.3621,0.3621,0.3745,0.3746,0.3747]},{"header":{"parameterUnit":"m.s-1","parameterCategory":1,"la1":30.2991,"la2":30.254,"lo1":-89.0895,"lo2":-89.0444,"dy":0.0017,"dx":0.0017,"nx":28,"ny":28,"refTime":"2023-11-07T09:00:00:Z","depth":0,"parameterNumber":3,"parameterNumberName":"V-component_of_WINDS"},"data":[0,0,0,0,0,0,0,0,0,0,0,0,0,0,0,0,0,0,0,0,0,0,0,0,0,0,0,0,0,0,0,0,0,0,0,0,0,0,0,0,0,0,0,0,0,0,0,0,0,0,0,0,0,0,0,0,0,0,1.0137,1.0138,0,1.0258,1.0259,1.0261,1.0241,1.0239,1.0237,1.0235,1.0361,1.0366,1.0371,0,0,0,0,0,0,0,0,0,0,0,0,0,0.9892,0.9897,1.0137,1.0138,1.014,1.0258,1.0259,1.0261,1.0241,1.0239,1.0236,1.0234,1.0359,1.0365,1.0371,0,0,0,0,0,0,0,0,0,0,0,0,0,1.0004,0.9898,1.0136,1.0144,1.0146,1.0257,1.0259,1.0261,1.0242,1.0239,1.0236,1.0233,1.0357,1.0364,1.0372,1.0484,0,0,1.0397,1.04,0,0,0,0,0,0,0,0,0.9998,1.0013,1.0142,1.0144,1.0146,1.0231,1.0219,1.0336,1.0243,1.0206,1.0235,1.0231,1.032,1.0331,1.0361,1.049,1.0495,1.0397,1.0402,1.0406,1.0408,0,0,0,0,0,0,0,0.999,1.0008,1.0185,1.0143,1.0146,1.0143,1.0155,1.0241,1.0279,1.0209,1.0207,1.0222,1.0321,1.0353,1.0363,1.0497,1.0397,1.0404,1.0409,1.0412,1.0729,1.0732,0,0,0,0,0,0,0.998,1.0002,1.0181,1.0188,1.0063,1.015,1.0164,1.0207,1.0278,1.0286,1.0224,1.0221,1.0341,1.0354,1.0368,1.0507,1.0405,1.0413,1.0417,1.0725,1.0729,1.0733,0,0,0,0,0,0,0.9975,0.9996,1.0176,1.0095,1.0117,1.0157,1.0206,1.0211,1.0243,1.029,1.0297,1.025,1.0339,1.0357,1.0456,1.0511,1.0417,1.0424,1.0721,1.0726,1.0731,1.0784,0,0,0,0,0,0,0.9968,0.9994,1.0036,1.0096,1.0122,1.0262,1.0209,1.0216,1.0257,1.0253,1.0316,1.0324,1.0338,1.0444,1.0464,1.052,1.043,1.0716,1.0723,1.073,1.0777,1.079,1.0801,0,0,0,0,0,0.9959,1.0046,1.0039,1.006,1.0175,1.0265,1.028,1.0294,1.0261,1.0305,1.0335,1.0322,1.0501,1.0455,1.0477,1.0536,1.0713,1.0721,1.0729,1.0772,1.0788,1.0801,0,0,0,0,0,0,0.9992,1.0054,1.0046,1.0155,1.0205,1.0261,1.0317,1.031,1.037,1.0364,1.038,1.0394,1.0496,1.0525,1.0473,1.065,1.0602,1.0615,1.0627,1.0643,1.0654,1.0647,1.0437,0,0,0,0,0,1.0011,1.0078,1.0129,1.022,1.0245,1.0277,1.0316,1.0323,1.0375,1.0397,1.0434,1.0487,1.0555,1.06,1.0665,1.078,1.0796,1.0832,1.0844,1.0853,1.0866,1.0933,1.095,1.076,1.076,1.076,0,0,1.0053,1.0095,1.0136,1.0227,1.0267,1.0338,1.0294,1.037,1.0423,1.0408,1.0506,1.0535,1.0595,1.0704,1.0753,1.0731,1.0921,1.0864,1.0871,1.0878,1.0943,1.0961,1.0977,1.0766,1.0765,1.0764,0,0,1.0166,1.0203,1.0285,1.0325,1.0386,1.0406,1.0426,1.0484,1.0503,1.0601,1.0592,1.0656,1.0772,1.0816,1.0854,1.0985,1.0977,1.1006,1.107,1.1135,1.115,1.1163,1.1214,1.1232,1.1017,1.1017,1.1017,0,1.0211,1.0316,1.0327,1.0405,1.0447,1.0436,1.052,1.0559,1.0638,1.0668,1.0641,1.079,1.0828,1.0949,1.0982,1.1011,1.1036,1.1,1.1147,1.116,1.1173,1.1222,1.124,1.1021,1.102,1.102,1.102,0,1.037,1.0443,1.0502,1.0579,1.0627,1.0707,1.0733,1.078,1.0782,1.0806,1.0908,1.0954,1.103,1.1058,1.1061,1.1181,1.1166,1.1143,1.1096,1.1195,1.1241,1.1259,1.1026,1.1024,1.1023,1.1022,0,0,1.0508,1.0591,1.0613,1.065,1.0716,1.0774,1.0854,1.0929,1.0971,1.1025,1.1096,1.1195,1.1175,1.1218,1.1225,1.1282,1.1388,1.1252,1.1254,1.1279,1.1527,1.1547,1.1568,1.1381,1.1384,1.1387,1.1524,0,1.0631,1.0773,1.0787,1.0916,1.0985,1.0976,1.1047,1.1097,1.1121,1.1185,1.1212,1.1284,1.125,1.1276,1.1331,1.1363,1.1439,1.1353,1.145,1.1453,1.1439,1.1592,1.1613,1.1739,1.1541,1.1544,1.1547,0,1.0793,1.0854,1.0989,1.1049,1.1079,1.1142,1.1213,1.1273,1.1329,1.1343,1.1392,1.1393,1.1478,1.1426,1.1545,1.1487,1.1527,1.1549,1.1554,1.1567,1.1508,1.1613,1.1779,1.18,1.1574,1.1572,1.157,0,1.0886,1.1001,1.1098,1.1128,1.1199,1.1244,1.1276,1.1329,1.1374,1.1436,1.1466,1.1536,1.1576,1.1631,1.1652,1.1611,1.1772,1.1721,1.1789,1.1789,1.1826,1.1825,1.2006,1.1845,1.1845,1.1845,1.1844,0,1.1023,1.1108,1.1141,1.1201,1.1296,1.1311,1.1405,1.1434,1.1482,1.155,1.1544,1.1608,1.1629,1.1697,1.1713,1.1812,1.1829,1.1845,1.1849,1.1848,1.1846,1.1877,1.187,1.185,1.1849,1.1848,1.1847,0,1.1144,1.1169,1.1275,1.1333,1.135,1.1418,1.1469,1.1528,1.1551,1.1637,1.1657,1.1695,1.1774,1.1799,1.1895,1.1906,1.2023,1.2017,1.2004,1.2006,1.2075,1.207,1.2286,1.2317,1.2132,1.2133,1.2135,0,1.1233,1.1298,1.1363,1.1408,1.1442,1.1513,1.1559,1.1576,1.1624,1.1695,1.1746,1.1825,1.1889,1.2016,1.2053,1.2127,1.2125,1.2196,1.2137,1.2135,1.2132,1.2129,1.2138,1.2208,1.221,1.2212,1.2213,0,1.1388,1.1398,1.1464,1.1535,1.1591,1.1647,1.1702,1.1739,1.1765,1.182,1.1901,1.1951,1.2049,1.2128,1.2204,1.2237,1.2232,1.2231,1.2252,1.2253,1.2245,1.2255,1.2039,1.2227,1.2226,1.2225,1.2224,1.2223,1.1499,1.1557,1.1614,1.1688,1.1731,1.1783,1.1843,1.1874,1.1942,1.2023,1.2029,1.2118,1.2175,1.2276,1.2313,1.2384,1.2364,1.2393,1.2401,1.2409,1.2417,1.223,1.2397,1.2397,1.2397,1.2396,1.2396,0,1.1658,1.1693,1.1762,1.1839,1.1899,1.1886,1.1946,1.1998,1.2076,1.2129,1.2193,1.2288,1.2365,1.2408,1.2485,1.2534,1.2534,1.2554,1.2553,1.2562,1.2428,1.2404,1.2554,1.2554,1.2554,1.2554,1.2554,1.2554,1.1748,1.1848,1.1864,1.1986,1.2021,1.2109,1.2145,1.2194,1.2237,1.2343,1.2408,1.2434,1.2485,1.2566,1.2637,1.2648,1.2679,1.2703,1.2712,1.2587,1.2571,1.2555,1.2534,1.2708,1.2708,1.284,1.2842,1.2842]}]]